Location: Roland
(31.1349°N, 85.4372°W)
Time: 08:38:11
(UTC+00:00)

Tiros 1 despin weight - Visible Passes

Search period start: 20 April 2021 00:00
Search period end: 30 April 2021 00:00
Orbit: 593 x 641 km, 48.2° (Epoch: 19 April)

Date Brightness Start Highest point End Pass type
(mag) Time Alt. Az. Time Alt. Az. Time Alt. Az.
20 Apr ? 08:36:30 20° ESE 08:36:30 20° ESE 08:39:05 10° E visible
20 Apr ? 10:13:33 17° WSW 10:16:56 54° NW 10:21:25 10° NE visible
21 Apr ? 08:52:15 43° ESE 08:52:15 43° ESE 08:56:11 10° ENE visible
21 Apr ? 10:29:23 10° W 10:33:25 29° NNW 10:37:26 10° NNE visible
22 Apr ? 09:07:56 82° WNW 09:08:02 83° NW 09:12:38 10° NE visible
23 Apr ? 07:46:29 12° ENE 07:46:29 12° ENE 07:46:59 10° ENE visible
23 Apr ? 09:23:31 37° WNW 09:24:26 41° NW 09:28:48 10° NE visible
24 Apr ? 08:02:01 22° ENE 08:02:01 22° ENE 08:03:45 10° NE visible
24 Apr ? 09:39:03 18° WNW 09:41:00 24° NNW 09:44:44 10° NNE visible
25 Apr ? 08:17:29 32° NNE 08:17:29 32° NNE 08:20:04 10° NE visible
25 Apr ? 09:54:56 10° WNW 09:57:44 16° NNW 10:00:30 10° NNE visible
26 Apr ? 08:32:53 30° N 08:32:53 30° N 08:36:08 10° NNE visible
26 Apr ? 10:13:14 10° NNW 10:14:37 11° NNW 10:16:00 10° N visible
27 Apr ? 07:11:13 10° NE 07:11:13 10° NE 07:11:14 10° NE visible
27 Apr ? 08:48:15 20° NNW 08:48:34 20° NNW 08:52:00 10° NNE visible
28 Apr ? 07:26:32 15° NE 07:26:32 15° NE 07:27:26 10° NE visible
28 Apr ? 09:03:34 11° NW 09:05:22 14° NNW 09:07:42 10° NNE visible
29 Apr ? 07:41:49 18° NNE 07:41:49 18° NNE 07:43:24 10° NNE visible
29 Apr ? 09:21:46 10° NNW 09:22:19 10° N 09:22:51 10° N visible
